User: anonymous   Login
Location: Glenbow
(51.1592°N, 114.3828°W)
Time: 14:08:51
(UTC+00:00)
Language:

Envisat - Orbit

View from above orbital plane
View from above orbital plane
View from above satellite
View from above satellite

Ground track
Ground track

The orbit data is extracted from the following two-line orbital elements,

1 27386U 02009A   22028.95189590  .00000080  00000-0  39880-4 0  9997
2 27386  98.1693  16.7146 0001186  87.3740 325.4444 14.38071979 43488
Epoch (UTC): 28 January 2022 22:50:43
Eccentricity: 0.0001186
inclination: 98.1693°
perigee height: 764 km
apogee height: 766 km
right ascension of ascending node: 16.7146°
argument of perigee: 87.3740°
revolutions per day: 14.38071979
mean anomaly at epoch: 325.4444°
orbit number at epoch: 4348

The dashed part of the orbit path shows where the satellite is in the earth's shadow,  

DLR